COSMOS 1275 DEB, 42145

Orbit data source: Space-Track

COSMOS 1275 DEB, 42145 is space debris in LEO originally from a launch on Thu, 04 Jun 1981 UTC launched from the Plesetsk Missile And Space Complex (PKMTR). Debris objects in space refer to the collection of defunct objects orbiting the Earth. Examples of debris include non-operational satellites, rocket bodies, and fragments generated from explosions, collisions, or faulty payload assembly.

Loading next visibility...
Identifier
42145, 1981-053RH
Orbit
LEO
Country
Flag of CISCIS
Related business
Manufacturer
Unknown
Mission
Spacecraft
Bus & Motor
Unknown
Mass
Unknown
Launch date (UTC)
1981-06-04 (45 years ago)
Launch vehicle
Unknown
Launch site
Plesetsk Missile And Space Complex (PKMTR)
Object type
Payload
Rocket body
Debris
Shape & HBR
Unknown shape, 0.1 m
Radar Cross Section
Small (<0.1 m²)

Expand to show TLE details & history
Last TLE update: 1 week ago

TLE from 1 week ago
0 COSMOS 1275 DEB
1 42145U 81053RH  26163.59467186  .00101445  00000-0  39513-2 0  9995
2 42145  83.3282 112.1389 0007732  48.7593 311.4313 15.25522993663424
Epoch: 2026-06-12T14:16Z
TLE epoch observation values (Epoch: 2026-06-12T14:16:19.648Z)
Latitude
0.00005°
Longitude
-2.86483°
Altitude
488.821 km
Speed
7.623 km/s
True Right ascension
07h 28m 33s
True Declination
0° 00' 00"
Sunlit
Object was in daylight at epoch
Visualization orbit readout
Latitude
Unknown
Longitude
Unknown
Altitude
Unknown
Speed
Unknown
Apparent Right ascension
Unknown
Apparent Declination
Unknown
Sunlit
N/A
Visualization observer readout
Local Sidereal Time
14:34:54
Azimuth
Unknown
Elevation
Unknown
Doppler factor
Unknown
Orbital elements
Apogee altitude
491.451 km
Perigee altitude
480.836 km
Semi-major axis
6,864.281 km
Eccentricity
0.00077
Inclination
83.3282°
RAAN
112.1389°
Arg. of periapsis
48.7593°
True anomaly
311.36483°
Mean anomaly
311.4313°
Eccentric anomaly
311.39807°
Mean motion
3.81637 °/min
Orbital period
94.33 mins
BSTAR
0.0039513
Loading maneuver chart data...
Computing Atmospheric mass density...
Loading historical data...
Loading historical data...
Loading historical data...
Loading historical data...
Loading historical data...
Loading historical data...
Loading historical data...

Documentation

Showing up to 5 results
|